This is the latest recevied weather packets stored in our database for station/object KD4MBW. If no packets are shown the sender has not sent any weather packets the latest 10 day(s).
| Time | Temp. | Humidity | Pressure | Rain* | Wind** | Luminosity | Snow |
|---|---|---|---|---|---|---|---|
| 1788031821 | 27.22° C | 89% | 1018.1 hPa | 0 mm | - | 236 W/m² | - |
| 1788031515 | 27.22° C | 89% | 1018.3 hPa | 0 mm | - | 231 W/m² | - |
| 1788031215 | 27.22° C | 89% | 1018.4 hPa | 0 mm | - | 224 W/m² | - |
| 1788030909 | 26.67° C | 89% | 1018.3 hPa | 0 mm | - | 215 W/m² | - |
| 1788030608 | 26.67° C | 89% | 1018.4 hPa | 0 mm | - | 202 W/m² | - |
| 1788030303 | 27.22° C | 89% | 1018 hPa | 0 mm | - | 200 W/m² | - |
| 1788029998 | 27.22° C | 89% | 1018.1 hPa | 0 mm | - | 210 W/m² | - |
| 1788029693 | 27.22° C | 89% | 1018.4 hPa | 0 mm | - | 242 W/m² | - |
| 1788029388 | 26.67° C | 88% | 1018.4 hPa | 0 mm | - | 270 W/m² | - |
| 1788029086 | 26.67° C | 88% | 1018.5 hPa | 0 mm | - | 292 W/m² | - |
| 1788028781 | 26.67° C | 87% | 1018.7 hPa | 0 mm | - | 276 W/m² | - |
| 1788028476 | 27.22° C | 86% | 1018.7 hPa | 0 mm | - | 322 W/m² | - |
| 1788028172 | 26.67° C | 89% | 1018.9 hPa | 0 mm | - | 356 W/m² | - |
| 1788027871 | 26.67° C | 90% | 1019 hPa | 0 mm | - | 378 W/m² | - |
| 1788027566 | 26.67° C | 89% | 1018.9 hPa | 0 mm | - | 298 W/m² | - |
| 1788027266 | 26.67° C | 89% | 1019.1 hPa | 0 mm | - | 307 W/m² | - |
| 1788026966 | 26.67° C | 89% | 1019.3 hPa | 0 mm | - | 307 W/m² | - |
| 1788026660 | 26.67° C | 88% | 1019.2 hPa | 0 mm | - | 312 W/m² | - |
| 1788026052 | 26.67° C | 89% | 1019.4 hPa | 0 mm | - | 350 W/m² | - |
| 1788025749 | 27.22° C | 88% | 1019.3 hPa | 0 mm | - | 403 W/m² | - |
| 1788025444 | 27.22° C | 86% | 1019.4 hPa | 0 mm | - | 689 W/m² | - |
| 1788025140 | 27.22° C | 90% | 1019.7 hPa | 0 mm | - | 709 W/m² | - |
| 1788024840 | 26.67° C | 91% | 1019.5 hPa | 0 mm | - | 859 W/m² | - |
| 1788024536 | 26.67° C | 91% | 1019.5 hPa | 0 mm | - | 453 W/m² | - |
| 1788024235 | 26.67° C | 91% | 1019.5 hPa | 0 mm | - | 344 W/m² | - |
* Rain latest hour (hover to see other rain measurements)
** Current wind speed in m/s (hover to see current wind gust speed)